Boulder City, NV

7:20 PM PST on February 19, 2017 (GMT -0800)
Boulder City

Weather History for KBVU - July, 2014

Change the Weather History Date:

Thursday, July 3, 2014

  Actual Average (KLAS) Record (KLAS)
Temperature  
Mean Temperature 92 °F -  
Max Temperature 105 °F 103 °F 116 °F (1937)
Min Temperature 78 °F 75 °F 60 °F (1943)
Cooling Degree Days 26    
Growing Degree Days 42 (Base 50)    
Moisture  
Dew Point 43 °F    
Average Humidity 17    
Maximum Humidity 34    
Minimum Humidity 8    
Precipitation  
Precipitation 0.00 in - - ()
Sea Level Pressure  
Sea Level Pressure 29.88 in    
Wind  
Wind Speed 11 mph (SSE)    
Max Wind Speed 28 mph    
Max Gust Speed 34 mph    
Visibility 10 miles    
Events      
Averages and records for this station are not official NWS values.
T = Trace of Precipitation, MM = Missing Value Source: NWS Daily Summary

Daily Weather History Graph

Daily Weather History Graph

Search for Another Location

Airport or City:

Trip Planner

Search our weather history database for the weather conditions in past years. The results will help you decide how hot, cold, wet, or windy it might be!

Date:

Astronomy

Jul. 03, 2014 Rise Set
Actual Time 5:27 AM PDT 7:59 PM PDT
Civil Twilight 4:57 AM PDT 8:29 PM PDT
Nautical Twilight 4:20 AM PDT 9:06 PM PDT
Astronomical Twilight 3:38 AM PDT 9:48 PM PDT
Moon 11:18 AM PDT (7/3) 11:36 PM PDT (7/3)
Length of Visible Light 15h 32m
Length of Day
14h 32m
Waxing Crescent, 34% of the Moon is Illuminated
Jul 3
Waxing Crescent
Jul 5
First Quarter
Jul 12
Full
Jul 18
Last Quarter
Jul 26
New

Hourly Weather History & Observations

Time (PDT) Temp. Dew Point Humidity Pressure Visibility Wind Dir Wind Speed Gust Speed Precip Events Conditions
12:15 AM 93.2 °F 37.4 °F 14% 29.86 in 10.0 mi SSE 5.8 mph - N/A   Clear
12:35 AM 93.2 °F 42.8 °F 17% 29.86 in 10.0 mi SSE 9.2 mph - N/A   Clear
12:55 AM 93.2 °F 37.4 °F 14% 29.87 in 10.0 mi East 9.2 mph - N/A   Clear
1:15 AM 89.6 °F 35.6 °F 15% 29.87 in 10.0 mi East 8.1 mph - N/A   Clear
1:35 AM 91.4 °F 37.4 °F 15% 29.87 in 10.0 mi ESE 6.9 mph - N/A   Clear
1:55 AM 89.6 °F 35.6 °F 15% 29.87 in 10.0 mi East 5.8 mph - N/A   Clear
2:15 AM 91.4 °F 35.6 °F 14% 29.88 in 10.0 mi ESE 6.9 mph - N/A   Clear
2:35 AM 89.6 °F 35.6 °F 15% 29.87 in - SE 8.1 mph - N/A   Clear
2:55 AM 89.6 °F 35.6 °F 15% 29.87 in 10.0 mi SSW 5.8 mph - N/A   Clear
3:15 AM 87.8 °F 37.4 °F 17% 29.87 in 10.0 mi Calm Calm - N/A   Clear
3:35 AM 84.2 °F 41.0 °F 22% 29.88 in 10.0 mi Calm Calm - N/A   Clear
3:55 AM 86.0 °F 41.0 °F 20% 29.87 in 10.0 mi Calm Calm - N/A   Clear
4:15 AM 86.0 °F 42.8 °F 22% 29.88 in 10.0 mi East 4.6 mph - N/A   Clear
4:35 AM 86.0 °F 41.0 °F 20% 29.89 in 10.0 mi Calm Calm - N/A   Clear
4:55 AM 78.8 °F 48.2 °F 34% 29.89 in 10.0 mi Calm Calm - N/A   Clear
5:15 AM 80.6 °F 46.4 °F 30% 29.90 in 10.0 mi Calm Calm - N/A   Clear
5:35 AM 82.4 °F 48.2 °F 30% 29.91 in 10.0 mi Calm Calm - N/A   Clear
5:55 AM 86.0 °F 42.8 °F 22% 29.91 in 10.0 mi SSW 3.5 mph - N/A   Clear
6:15 AM 86.0 °F 42.8 °F 22% 29.92 in 10.0 mi Calm Calm - N/A   Clear
6:55 AM 89.6 °F 42.8 °F 20% 29.93 in 10.0 mi SE 8.1 mph - N/A   Clear
7:15 AM 89.6 °F 44.6 °F 21% 29.94 in 10.0 mi SE 12.7 mph - N/A   Clear
7:35 AM 89.6 °F 46.4 °F 22% 29.94 in 10.0 mi SE 15.0 mph - N/A   Clear
7:55 AM 91.4 °F 46.4 °F 21% 29.94 in 10.0 mi SE 16.1 mph - N/A   Clear
8:15 AM 91.4 °F 48.2 °F 23% 29.95 in 10.0 mi SE 16.1 mph - N/A   Clear
8:35 AM 91.4 °F 48.2 °F 23% 29.95 in 10.0 mi SSE 15.0 mph 20.7 mph N/A   Clear
8:55 AM 93.2 °F 48.2 °F 21% 29.95 in 10.0 mi SSE 13.8 mph - N/A   Clear
9:15 AM 93.2 °F 46.4 °F 20% 29.95 in 10.0 mi SSE 16.1 mph 21.9 mph N/A   Clear
9:35 AM 95.0 °F 46.4 °F 19% 29.95 in 10.0 mi SSE 15.0 mph 21.9 mph N/A   Clear
9:55 AM 95.0 °F 44.6 °F 18% 29.95 in 10.0 mi SSE 17.3 mph - N/A   Clear
10:15 AM 96.8 °F 44.6 °F 17% 29.95 in 10.0 mi SSE 13.8 mph 23.0 mph N/A   Clear
10:35 AM 96.8 °F 44.6 °F 17% 29.95 in 10.0 mi ESE 13.8 mph 20.7 mph N/A   Clear
10:55 AM 96.8 °F 46.4 °F 18% 29.94 in 10.0 mi ESE 18.4 mph - N/A   Clear
11:15 AM 98.6 °F 46.4 °F 17% 29.94 in 10.0 mi ESE 12.7 mph 23.0 mph N/A   Clear
11:35 AM 100.4 °F 46.4 °F 16% 29.93 in 10.0 mi SE 17.3 mph - N/A   Clear
11:55 AM 100.4 °F 46.4 °F 16% 29.92 in 10.0 mi SSE 19.6 mph - N/A   Clear
12:15 PM 100.4 °F 46.4 °F 16% 29.92 in 10.0 mi SSE 25.3 mph - N/A   Clear
12:35 PM 102.2 °F 46.4 °F 15% 29.91 in 10.0 mi SE 25.3 mph 31.1 mph N/A   Clear
12:55 PM 102.2 °F 46.4 °F 15% 29.91 in 10.0 mi SSE 23.0 mph 29.9 mph N/A   Clear
1:15 PM 102.2 °F 46.4 °F 15% 29.90 in 10.0 mi SE 24.2 mph 29.9 mph N/A   Clear
1:35 PM 102.2 °F 48.2 °F 16% 29.90 in 10.0 mi SE 21.9 mph 28.8 mph N/A   Clear
1:55 PM 104.0 °F 50.0 °F 16% 29.89 in 10.0 mi SSE 26.5 mph - N/A   Clear
2:15 PM 104.0 °F 48.2 °F 15% 29.88 in 10.0 mi SSE 19.6 mph 33.4 mph N/A   Clear
2:35 PM 104.0 °F 48.2 °F 15% 29.87 in 10.0 mi SSE 24.2 mph 33.4 mph N/A   Clear
2:55 PM 105.8 °F 48.2 °F 14% 29.86 in 10.0 mi SSE 21.9 mph 31.1 mph N/A   Clear
3:15 PM 105.8 °F 48.2 °F 14% 29.85 in 10.0 mi SE 26.5 mph 33.4 mph N/A   Clear
3:35 PM 105.8 °F 48.2 °F 14% 29.84 in 10.0 mi SSE 27.6 mph 34.5 mph N/A   Clear
3:55 PM 104.0 °F 48.2 °F 15% 29.84 in 10.0 mi SE 20.7 mph 32.2 mph N/A   Clear
4:15 PM 105.8 °F 46.4 °F 14% 29.83 in 10.0 mi SSE 23.0 mph 31.1 mph N/A   Clear
4:35 PM 104.0 °F 46.4 °F 14% 29.82 in 10.0 mi SSE 23.0 mph 31.1 mph N/A   Clear
4:55 PM 105.8 °F 42.8 °F 12% 29.82 in 10.0 mi SSE 15.0 mph 26.5 mph N/A   Clear
5:15 PM 105.8 °F 44.6 °F 13% 29.82 in 10.0 mi South 16.1 mph 34.5 mph N/A   Clear
5:35 PM 105.8 °F 46.4 °F 14% 29.81 in 10.0 mi SSE 20.7 mph - N/A   Clear
5:55 PM 105.8 °F 33.8 °F 8% 29.81 in 10.0 mi SSW 12.7 mph 19.6 mph N/A   Clear
6:15 PM 105.8 °F 35.6 °F 9% 29.81 in 10.0 mi South 15.0 mph 23.0 mph N/A   Clear
6:35 PM 104.0 °F 44.6 °F 13% 29.81 in 10.0 mi South 16.1 mph 27.6 mph N/A   Clear
6:55 PM 102.2 °F 42.8 °F 13% 29.81 in 10.0 mi SSE 17.3 mph 27.6 mph N/A   Clear
7:15 PM 102.2 °F 42.8 °F 13% 29.82 in 10.0 mi SSE 9.2 mph 21.9 mph N/A   Clear
7:35 PM 102.2 °F 33.8 °F 9% 29.82 in 10.0 mi SSW 12.7 mph - N/A   Clear
7:55 PM 100.4 °F 33.8 °F 10% 29.82 in 10.0 mi SW 6.9 mph - N/A   Clear
8:15 PM 98.6 °F 33.8 °F 10% 29.83 in 10.0 mi South 6.9 mph - N/A   Clear
8:35 PM 98.6 °F 37.4 °F 12% 29.84 in 10.0 mi South 10.4 mph - N/A   Clear
8:55 PM 96.8 °F 37.4 °F 13% 29.85 in 10.0 mi South 12.7 mph - N/A   Clear
9:15 PM 96.8 °F 39.2 °F 14% 29.86 in 10.0 mi SSE 9.2 mph - N/A   Clear
9:35 PM 96.8 °F 39.2 °F 14% 29.87 in 10.0 mi SSE 12.7 mph - N/A   Clear
9:55 PM 95.0 °F 39.2 °F 14% 29.88 in 10.0 mi SSE 9.2 mph - N/A   Clear
10:15 PM 95.0 °F 39.2 °F 14% 29.88 in 10.0 mi SSE 12.7 mph - N/A   Clear
10:35 PM 95.0 °F 41.0 °F 15% 29.89 in 10.0 mi South 9.2 mph - N/A   Clear
10:55 PM 95.0 °F 41.0 °F 15% 29.90 in 10.0 mi South 6.9 mph - N/A   Clear
11:15 PM 95.0 °F 42.8 °F 16% 29.90 in 10.0 mi SSW 9.2 mph - N/A   Clear
11:35 PM 95.0 °F 46.4 °F 19% 29.91 in 10.0 mi South 11.5 mph 20.7 mph N/A   Clear
11:55 PM 95.0 °F 46.4 °F 19% 29.91 in 10.0 mi South 15.0 mph 20.7 mph N/A   Clear